Clarksburg, WV

6:21 PM EDT on April 23, 2017 (GMT -0400)
Benedum

Weather History for KCKB - January, 2013

Change the Weather History Date:

Thursday, January 24, 2013

  Actual Average Record
Temperature  
Mean Temperature 16 °F -  
Max Temperature 21 °F 42 °F 69 °F (1967)
Min Temperature 10 °F 19 °F -15 °F (1936)
Degree Days  
Heating Degree Days 48    
Moisture  
Dew Point 8 °F    
Average Humidity 70    
Maximum Humidity 86    
Minimum Humidity 42    
Precipitation  
Precipitation 0.00 in - - ()
Sea Level Pressure  
Sea Level Pressure 30.28 in    
Wind  
Wind Speed 5 mph (NW)    
Max Wind Speed 13 mph    
Max Gust Speed 17 mph    
Visibility 6 miles    
Events Snow    
Averages and records for this station are not official NWS values.
T = Trace of Precipitation, MM = Missing Value Source: NWS Daily Summary

Daily Weather History Graph

Daily Weather History Graph

Search for Another Location

Airport or City:

Trip Planner

Search our weather history database for the weather conditions in past years. The results will help you decide how hot, cold, wet, or windy it might be!

Date:

Astronomy

Jan. 24, 2013 Rise Set
Actual Time 7:34 AM EST 5:32 PM EST
Civil Twilight 7:05 AM EST 6:01 PM EST
Nautical Twilight 6:32 AM EST 6:33 PM EST
Astronomical Twilight 6:01 AM EST 7:05 PM EST
Moon 3:33 PM EST (1/24) 5:30 AM EST (1/24)
Length of Visible Light 10h 55m
Length of Day
9h 58m
Waxing Gibbous, 94% of the Moon is Illuminated
Jan 24
Waxing Gibbous
Jan 26
Full
Feb 3
Last Quarter
Feb 10
New
Feb 17
First Quarter

Hourly Weather History & Observations

Time (EST) Temp. Windchill Dew Point Humidity Pressure Visibility Wind Dir Wind Speed Gust Speed Precip Events Conditions
12:05 AM 17.6 °F - 14.0 °F 86% 30.02 in 4.0 mi Calm Calm - 0.00 in Snow Light Snow
12:26 AM 17.6 °F - 14.0 °F 86% 30.02 in 2.0 mi Calm Calm - 0.00 in Snow Light Snow
12:41 AM 17.6 °F 12.3 °F 14.0 °F 86% 30.02 in 2.0 mi SW 3.5 mph - 0.00 in Snow Light Snow
12:53 AM 18.0 °F 11.1 °F 14.0 °F 84% 30.06 in 2.0 mi SW 4.6 mph - 0.00 in Snow Light Snow
1:53 AM 18.0 °F 11.1 °F 14.0 °F 84% 30.07 in 2.5 mi SW 4.6 mph - 0.00 in Snow Light Snow
2:06 AM 17.6 °F 10.7 °F 14.0 °F 86% 30.03 in 3.0 mi West 4.6 mph - 0.00 in Snow Light Snow
2:24 AM 17.6 °F 10.7 °F 14.0 °F 86% 30.03 in 2.5 mi West 4.6 mph - 0.00 in Snow Light Snow
2:53 AM 18.0 °F 11.1 °F 14.0 °F 84% 30.08 in 3.0 mi West 4.6 mph - 0.00 in Snow Light Snow
3:46 AM 17.6 °F 8.2 °F 12.2 °F 79% 30.06 in 5.0 mi WNW 6.9 mph - 0.00 in Snow Light Snow
3:53 AM 18.0 °F 8.7 °F 12.9 °F 81% 30.10 in 3.0 mi WNW 6.9 mph - 0.00 in Snow Light Snow
4:20 AM 17.6 °F 7.3 °F 12.2 °F 79% 30.08 in 4.0 mi NW 8.1 mph - 0.00 in Snow Light Snow
4:36 AM 17.6 °F 8.2 °F 12.2 °F 79% 30.10 in 2.0 mi WNW 6.9 mph - 0.00 in Snow Light Snow
4:53 AM 17.1 °F 6.6 °F 12.0 °F 81% 30.15 in 3.0 mi WNW 8.1 mph - 0.00 in Snow Light Snow
5:09 AM 17.6 °F 5.7 °F 12.2 °F 79% 30.11 in 2.5 mi WNW 10.4 mph - 0.00 in Snow Light Snow
5:38 AM 17.6 °F 8.2 °F 12.2 °F 79% 30.13 in 4.0 mi NW 6.9 mph - 0.00 in Snow Light Snow
5:53 AM 17.1 °F 7.6 °F 10.9 °F 77% 30.20 in 2.5 mi NNW 6.9 mph - 0.00 in Snow Light Snow
6:01 AM 15.8 °F 6.1 °F 10.4 °F 79% 30.16 in 5.0 mi NNW 6.9 mph - 0.00 in Snow Light Snow
6:11 AM 15.8 °F 2.7 °F 8.6 °F 73% 30.17 in 9.0 mi NNW 11.5 mph 17.3 mph 0.00 in   Overcast
6:53 AM 16.0 °F 4.4 °F 9.0 °F 74% 30.25 in 9.0 mi NW 9.2 mph - 0.00 in   Overcast
7:53 AM 15.1 °F 2.5 °F 9.0 °F 77% 30.31 in 6.0 mi NW 10.4 mph 16.1 mph 0.00 in   Haze
8:14 AM 15.8 °F 7.2 °F 8.6 °F 73% 30.28 in 6.0 mi NW 5.8 mph - N/A   Mostly Cloudy
8:53 AM 16.0 °F 6.3 °F 8.1 °F 71% 30.36 in 6.0 mi NW 6.9 mph - N/A   Mostly Cloudy
9:53 AM 17.1 °F 5.8 °F 8.1 °F 68% 30.41 in 10.0 mi NW 9.2 mph - N/A   Overcast
10:53 AM 18.0 °F 5.4 °F 7.0 °F 62% 30.45 in 10.0 mi NW 11.5 mph - N/A   Mostly Cloudy
11:03 AM 17.6 °F 5.7 °F 6.8 °F 63% 30.41 in 10.0 mi NNW 10.4 mph - N/A   Mostly Cloudy
11:53 AM 19.9 °F 11.1 °F 5.0 °F 52% 30.47 in 10.0 mi Variable 6.9 mph - N/A   Mostly Cloudy
12:53 PM 19.9 °F 9.3 °F 3.0 °F 48% 30.47 in 10.0 mi NW 9.2 mph - N/A   Mostly Cloudy
1:53 PM 21.9 °F 9.8 °F 3.0 °F 44% 30.46 in 10.0 mi NNW 12.7 mph - N/A   Partly Cloudy
2:53 PM 21.9 °F 13.4 °F 1.9 °F 42% 30.46 in 10.0 mi NNW 6.9 mph - N/A   Clear
3:53 PM 21.0 °F 13.4 °F 1.9 °F 44% 30.48 in 10.0 mi NNW 5.8 mph - N/A   Mostly Cloudy
4:53 PM 19.9 °F 13.4 °F 1.0 °F 44% 30.50 in 10.0 mi North 4.6 mph - N/A   Mostly Cloudy
5:53 PM 18.0 °F 9.8 °F 1.0 °F 48% 30.51 in 10.0 mi North 5.8 mph - N/A   Partly Cloudy
6:53 PM 17.1 °F - -0.0 °F 47% 30.54 in 10.0 mi Calm Calm - N/A   Clear
7:53 PM 15.1 °F 7.7 °F 3.0 °F 59% 30.56 in 10.0 mi NNE 4.6 mph - N/A   Clear
8:53 PM 14.0 °F - 3.0 °F 62% 30.54 in 10.0 mi Calm Calm - N/A   Clear
9:53 PM 12.0 °F - 3.0 °F 67% 30.53 in 10.0 mi Calm Calm - N/A   Clear
10:53 PM 12.0 °F - 3.0 °F 67% 30.53 in 10.0 mi Calm Calm - N/A   Clear
11:53 PM 10.9 °F - 3.9 °F 73% 30.52 in 10.0 mi Calm Calm - N/A   Clear